Weather History for Oshkosh, WI

Change the Weather History Date:

Monday, November 11, 2013

  Actual Average Record
Temperature  
Mean Temperature 34 °F -  
Max Temperature 42 °F 42 °F 69 °F (1964)
Min Temperature 25 °F 27 °F 8 °F (1986)
Degree Days  
Heating Degree Days 31    
Moisture  
Dew Point 23 °F    
Average Humidity 68    
Maximum Humidity 93    
Minimum Humidity 41    
Precipitation  
Precipitation 0.08 in - - ()
Sea Level Pressure  
Sea Level Pressure 30.23 in    
Wind  
Wind Speed 10 mph (NW)    
Max Wind Speed 20 mph    
Max Gust Speed 30 mph    
Visibility 8 miles    
Events Rain , Snow    
Averages and records for this station are not official NWS values.
T = Trace of Precipitation, MM = Missing Value Source: NWS Daily Summary

Daily Weather History Graph

Daily Weather History Graph

Search for Another Location

Airport:

Trip Planner

Search our weather history database for the weather conditions in past years. The results will help you decide how hot, cold, wet, or windy it might be!

Date:

Astronomy

Nov. 11, 2013 Rise Set
Actual Time 6:44 AM CST 4:31 PM CST
Civil Twilight 6:13 AM CST 5:02 PM CST
Nautical Twilight 5:38 AM CST 5:37 PM CST
Astronomical Twilight 5:04 AM CST 6:11 PM CST
Moon 1:23 PM CST (11/11) 12:16 AM CST (11/11)
Length of Visible Light 10h 49m
Length of Day
9h 47m
Waxing Gibbous, 66% of the Moon is Illuminated
Nov 11
Waxing Gibbous
Nov 17
Full
Nov 25
Last Quarter
Dec 2
New
Dec 9
First Quarter

Hourly Weather History & Observations

Time (CST) Temp. Windchill Dew Point Humidity Pressure Visibility Wind Dir Wind Speed Gust Speed Precip Events Conditions
12:53 AM 42.1 °F 38.4 °F 30.0 °F 62% 30.09 in 10.0 mi SW 5.8 mph - N/A   Overcast
1:53 AM 41.0 °F 38.0 °F 28.9 °F 62% 30.07 in 10.0 mi SW 4.6 mph - N/A   Overcast
2:53 AM 41.0 °F 38.0 °F 30.0 °F 65% 30.06 in 10.0 mi WSW 4.6 mph - 0.00 in Rain Light Rain
3:53 AM 41.0 °F 36.4 °F 32.0 °F 70% 30.05 in 10.0 mi West 6.9 mph - 0.00 in Rain Light Rain
4:53 AM 39.9 °F 32.5 °F 32.0 °F 73% 30.07 in 10.0 mi WNW 12.7 mph - 0.00 in Rain Light Rain
5:53 AM 37.0 °F 29.8 °F 33.1 °F 86% 30.08 in 9.0 mi WNW 10.4 mph - 0.02 in Rain Light Rain
6:21 AM 37.4 °F 30.3 °F 33.8 °F 87% 30.07 in 8.0 mi WNW 10.4 mph - 0.01 in Rain Light Rain
6:29 AM 37.4 °F 30.8 °F 33.8 °F 87% 30.08 in 6.0 mi NW 9.2 mph - 0.02 in Rain Light Rain
6:53 AM 37.0 °F 28.9 °F 32.0 °F 82% 30.12 in 7.0 mi NW 12.7 mph - 0.03 in Rain Light Rain
7:04 AM 35.6 °F 28.6 °F 32.0 °F 87% 30.09 in 8.0 mi NW 9.2 mph 19.6 mph 0.01 in Rain Light Rain
7:10 AM 35.6 °F 29.2 °F 32.0 °F 87% 30.10 in 6.0 mi WNW 8.1 mph 19.6 mph 0.01 in Rain Light Rain
7:18 AM 35.6 °F 28.6 °F 32.0 °F 87% 30.10 in 5.0 mi WNW 9.2 mph - 0.01 in Rain Light Rain
7:28 AM 35.6 °F 29.9 °F 32.0 °F 87% 30.10 in 4.0 mi NW 6.9 mph - 0.01 in Rain Light Rain
7:37 AM 35.6 °F 28.6 °F 32.0 °F 87% 30.11 in 5.0 mi NW 9.2 mph - 0.02 in Rain Light Rain
7:53 AM 36.0 °F 30.3 °F 32.0 °F 86% 30.14 in 5.0 mi WNW 6.9 mph - 0.02 in Rain Light Rain
8:20 AM 35.6 °F 29.2 °F 33.8 °F 93% 30.12 in 4.0 mi WNW 8.1 mph - 0.01 in Rain Light Rain
8:33 AM 33.8 °F 23.2 °F 28.4 °F 81% 30.13 in 2.0 mi North 17.3 mph 25.3 mph 0.01 in Snow Light Snow
8:41 AM 33.8 °F 23.5 °F 26.6 °F 75% 30.14 in 5.0 mi North 16.1 mph 25.3 mph 0.01 in Snow Light Snow
8:53 AM 33.1 °F 22.2 °F 25.0 °F 72% 30.18 in 9.0 mi NNW 17.3 mph 29.9 mph 0.01 in   Overcast
9:29 AM 32.0 °F 20.8 °F 23.0 °F 69% 30.18 in 8.0 mi NNW 17.3 mph 24.2 mph 0.00 in Snow Light Snow
9:53 AM 30.9 °F 18.7 °F 21.9 °F 69% 30.22 in 3.0 mi North 19.6 mph 25.3 mph 0.00 in Snow Light Snow
10:03 AM 30.2 °F 17.8 °F 21.2 °F 69% 30.19 in 7.0 mi North 19.6 mph - 0.00 in   Overcast
10:53 AM 30.0 °F 18.7 °F 18.0 °F 61% 30.25 in 10.0 mi NNW 16.1 mph 24.2 mph 0.00 in   Overcast
11:53 AM 30.0 °F 18.3 °F 16.0 °F 56% 30.27 in 10.0 mi North 17.3 mph 24.2 mph N/A   Mostly Cloudy
12:53 PM 30.0 °F 19.1 °F 14.0 °F 51% 30.28 in 10.0 mi NNW 15.0 mph - N/A   Partly Cloudy
1:53 PM 30.0 °F 19.5 °F 12.9 °F 49% 30.30 in 10.0 mi NNW 13.8 mph - N/A   Clear
2:53 PM 30.0 °F 19.1 °F 9.0 °F 41% 30.32 in 10.0 mi NNW 15.0 mph - N/A   Clear
3:53 PM 28.0 °F 18.1 °F 10.0 °F 47% 30.35 in 10.0 mi NNW 11.5 mph - N/A   Clear
4:53 PM 27.0 °F 16.1 °F 10.9 °F 51% 30.38 in 10.0 mi NNW 12.7 mph 18.4 mph N/A   Partly Cloudy
5:53 PM 27.0 °F 15.6 °F 9.0 °F 47% 30.42 in 10.0 mi NNW 13.8 mph 23.0 mph N/A   Clear
6:53 PM 27.0 °F 16.1 °F 9.0 °F 47% 30.45 in 10.0 mi NNW 12.7 mph 23.0 mph N/A   Clear
7:53 PM 27.0 °F 15.6 °F 10.9 °F 51% 30.47 in 10.0 mi NNW 13.8 mph 19.6 mph N/A   Overcast
8:53 PM 28.0 °F 17.0 °F 10.9 °F 49% 30.50 in 10.0 mi North 13.8 mph - N/A   Overcast
9:53 PM 27.0 °F 15.6 °F 12.0 °F 53% 30.54 in 10.0 mi North 13.8 mph - N/A   Overcast
10:53 PM 26.1 °F 14.5 °F 12.9 °F 58% 30.56 in 10.0 mi NNW 13.8 mph - N/A   Mostly Cloudy
11:53 PM 25.0 °F 13.6 °F 12.9 °F 60% 30.58 in 10.0 mi NNW 12.7 mph - N/A   Clear